Year,Month,Day,Hour,Minute,Value (Times are PST for temperature in C)
2015,06,09,10,17,20.80
2015,06,09,10,18,20.80
2015,06,09,10,19,20.90
2015,06,09,10,20,20.80
2015,06,09,10,21,20.80
2015,06,09,10,22,20.80
2015,06,09,10,23,20.80
2015,06,09,10,24,20.80
2015,06,09,10,25,20.70
2015,06,09,10,26,20.70
2015,06,09,10,27,20.70
2015,06,09,10,28,20.70
2015,06,09,10,29,20.60
2015,06,09,10,30,20.70
2015,06,09,10,31,20.70
2015,06,09,10,32,20.70
2015,06,09,10,33,20.70
2015,06,09,10,34,20.80
2015,06,09,10,35,20.80
2015,06,09,10,36,20.90
2015,06,09,10,37,20.90
2015,06,09,10,38,21.00
2015,06,09,10,39,21.10
2015,06,09,10,40,21.20
2015,06,09,10,41,21.30
2015,06,09,10,42,21.30
2015,06,09,10,43,21.30
2015,06,09,10,44,21.30
2015,06,09,10,45,21.30
2015,06,09,10,46,21.20
2015,06,09,10,47,21.10
2015,06,09,10,48,21.10
2015,06,09,10,49,21.10
2015,06,09,10,50,21.10
2015,06,09,10,51,21.00
2015,06,09,10,52,20.90
2015,06,09,10,53,20.90
2015,06,09,10,54,20.90
2015,06,09,10,55,20.90
2015,06,09,10,56,20.80
2015,06,09,10,57,20.90
2015,06,09,10,58,21.00
2015,06,09,10,59,21.10
2015,06,09,11,00,21.10
2015,06,09,11,01,21.20
2015,06,09,11,02,21.20
2015,06,09,11,03,21.30
2015,06,09,11,04,21.30
2015,06,09,11,05,21.30
2015,06,09,11,06,21.40
2015,06,09,11,07,21.40
2015,06,09,11,08,21.50
2015,06,09,11,09,21.60
2015,06,09,11,10,21.60
2015,06,09,11,11,21.60
2015,06,09,11,12,21.60
2015,06,09,11,13,21.60
2015,06,09,11,14,21.60
2015,06,09,11,15,21.60
2015,06,09,11,16,21.60
2015,06,09,11,17,21.60
2015,06,09,11,18,21.60
2015,06,09,11,19,21.60
2015,06,09,11,20,21.50
2015,06,09,11,21,21.50
2015,06,09,11,22,21.50
2015,06,09,11,23,21.50
2015,06,09,11,24,21.50
2015,06,09,11,25,21.60
2015,06,09,11,26,21.50
2015,06,09,11,27,21.50
2015,06,09,11,28,21.60
2015,06,09,11,29,21.70
2015,06,09,11,30,21.70
2015,06,09,11,31,21.70
2015,06,09,11,32,21.70
2015,06,09,11,33,21.80
2015,06,09,11,34,21.80
2015,06,09,11,35,21.90
2015,06,09,11,36,21.90
2015,06,09,11,37,21.90
2015,06,09,11,38,22.10
2015,06,09,11,39,22.20
2015,06,09,11,40,22.30
2015,06,09,11,41,22.40
2015,06,09,11,42,22.40
2015,06,09,11,43,22.30
2015,06,09,11,44,22.20
2015,06,09,11,45,22.20
2015,06,09,11,46,22.10
2015,06,09,11,47,22.10
2015,06,09,11,48,22.10
2015,06,09,11,49,22.10
2015,06,09,11,50,22.10
2015,06,09,11,51,22.10
2015,06,09,11,52,22.10
2015,06,09,11,53,22.10
2015,06,09,11,54,22.00
2015,06,09,11,55,21.80
2015,06,09,11,56,21.80
2015,06,09,11,57,21.80
2015,06,09,11,58,21.80
2015,06,09,11,59,21.90
2015,06,09,12,00,22.00
2015,06,09,12,01,22.10
2015,06,09,12,02,22.20
2015,06,09,12,03,22.20
2015,06,09,12,04,22.20
2015,06,09,12,05,22.20
2015,06,09,12,06,22.20
2015,06,09,12,07,22.30
2015,06,09,12,08,22.30
2015,06,09,12,09,22.40
2015,06,09,12,10,22.50
2015,06,09,12,11,22.60
2015,06,09,12,12,22.60
2015,06,09,12,13,22.70
2015,06,09,12,14,22.70
2015,06,09,12,15,22.70
2015,06,09,12,16,22.80
2015,06,09,12,17,22.80
2015,06,09,12,18,22.80
2015,06,09,12,19,22.80
2015,06,09,12,20,22.80
2015,06,09,12,21,22.80
2015,06,09,12,22,23.00
2015,06,09,12,23,23.10
2015,06,09,12,24,23.20
2015,06,09,12,25,23.10
2015,06,09,12,26,23.10
2015,06,09,12,27,23.10
2015,06,09,12,28,23.10
2015,06,09,12,29,23.10
2015,06,09,12,30,23.10
2015,06,09,12,31,23.10
2015,06,09,12,32,23.10
2015,06,09,12,33,23.20
2015,06,09,12,34,23.10
2015,06,09,12,35,23.10
2015,06,09,12,36,23.00
2015,06,09,12,37,22.90
2015,06,09,12,38,22.90
2015,06,09,12,39,22.90
2015,06,09,12,40,23.00
2015,06,09,12,41,23.10
2015,06,09,12,42,23.20
2015,06,09,12,43,23.30
2015,06,09,12,44,23.30
2015,06,09,12,45,23.40
2015,06,09,12,46,23.40
2015,06,09,12,47,23.30
2015,06,09,12,48,23.20
2015,06,09,12,49,23.10
2015,06,09,12,50,23.20
2015,06,09,12,51,23.20
2015,06,09,12,52,23.20
2015,06,09,12,53,23.20
2015,06,09,12,54,23.20
2015,06,09,12,55,23.20
2015,06,09,12,56,23.20
2015,06,09,12,57,23.20
2015,06,09,12,58,23.20
2015,06,09,12,59,23.20
2015,06,09,13,00,23.20
2015,06,09,13,01,23.20
2015,06,09,13,02,23.20
2015,06,09,13,03,23.30
2015,06,09,13,04,23.40
2015,06,09,13,05,23.50
2015,06,09,13,06,23.60
2015,06,09,13,07,23.80
2015,06,09,13,08,23.80
2015,06,09,13,09,23.80
2015,06,09,13,10,23.80
2015,06,09,13,11,23.90
2015,06,09,13,12,23.90
2015,06,09,13,13,24.00
2015,06,09,13,14,24.00
2015,06,09,13,15,24.00
2015,06,09,13,16,23.90
2015,06,09,13,17,23.70
2015,06,09,13,18,23.50
2015,06,09,13,19,23.40
2015,06,09,13,20,23.40
2015,06,09,13,21,23.40
2015,06,09,13,22,23.50
2015,06,09,13,23,23.60
2015,06,09,13,24,23.70
2015,06,09,13,25,23.80
2015,06,09,13,26,23.80
2015,06,09,13,27,23.80
2015,06,09,13,28,23.80
2015,06,09,13,29,23.80
2015,06,09,13,30,23.80
2015,06,09,13,31,23.80
2015,06,09,13,32,23.80
2015,06,09,13,33,23.90
2015,06,09,13,34,24.00
2015,06,09,13,35,24.10
2015,06,09,13,36,24.20
2015,06,09,13,37,24.20
2015,06,09,13,38,24.20
2015,06,09,13,39,24.10
2015,06,09,13,40,24.10
2015,06,09,13,41,24.10
2015,06,09,13,42,24.00
2015,06,09,13,43,24.00
2015,06,09,13,44,24.00
2015,06,09,13,45,23.90
2015,06,09,13,46,23.80
2015,06,09,13,47,23.80
2015,06,09,13,48,23.80
2015,06,09,13,49,23.80
2015,06,09,13,50,23.90
2015,06,09,13,51,24.00
2015,06,09,13,52,24.10
2015,06,09,13,53,24.20
2015,06,09,13,54,24.30
2015,06,09,13,55,24.40
2015,06,09,13,56,24.40
2015,06,09,13,57,24.40
2015,06,09,13,58,24.30
2015,06,09,13,59,24.30
2015,06,09,14,00,24.30
2015,06,09,14,01,24.30
2015,06,09,14,02,24.20
2015,06,09,14,03,24.20
2015,06,09,14,04,24.20
2015,06,09,14,05,24.20
2015,06,09,14,06,24.20
2015,06,09,14,07,24.30
2015,06,09,14,08,24.50
2015,06,09,14,09,24.60
2015,06,09,14,10,24.70
2015,06,09,14,11,24.80
2015,06,09,14,12,24.80
2015,06,09,14,13,24.80
2015,06,09,14,14,24.70
2015,06,09,14,15,24.70
2015,06,09,14,16,24.50
2015,06,09,14,17,24.50
2015,06,09,14,18,24.50
2015,06,09,14,19,24.40
2015,06,09,14,20,24.40
2015,06,09,14,21,24.40
2015,06,09,14,22,24.30
2015,06,09,14,23,24.30
2015,06,09,14,24,24.40
2015,06,09,14,25,24.50
2015,06,09,14,26,24.60
2015,06,09,14,27,24.70
2015,06,09,14,28,24.70
2015,06,09,14,29,24.70
2015,06,09,14,30,24.70
2015,06,09,14,31,24.80
2015,06,09,14,32,24.80
2015,06,09,14,33,24.80
2015,06,09,14,34,24.90
2015,06,09,14,35,25.00
2015,06,09,14,36,25.10
2015,06,09,14,37,25.10
2015,06,09,14,38,25.10
2015,06,09,14,39,25.00
2015,06,09,14,40,25.00
2015,06,09,14,41,25.10
2015,06,09,14,42,25.00
2015,06,09,14,43,25.00
2015,06,09,14,44,24.90
2015,06,09,14,45,24.90
2015,06,09,14,46,24.90
2015,06,09,14,47,24.90
2015,06,09,14,48,25.00
2015,06,09,14,49,25.10
2015,06,09,14,50,25.10
2015,06,09,14,51,25.10
2015,06,09,14,52,25.20
2015,06,09,14,53,25.20
2015,06,09,14,54,25.20
2015,06,09,14,55,25.20
2015,06,09,14,56,25.20
2015,06,09,14,57,25.30
2015,06,09,14,58,25.20
2015,06,09,14,59,25.20
2015,06,09,15,00,25.20
2015,06,09,15,01,25.30
2015,06,09,15,02,25.40
2015,06,09,15,03,25.60
2015,06,09,15,04,25.70
2015,06,09,15,05,25.80
2015,06,09,15,06,25.90
2015,06,09,15,07,25.90
2015,06,09,15,08,25.90
2015,06,09,15,09,25.90
2015,06,09,15,10,25.80
2015,06,09,15,11,25.80
2015,06,09,15,12,25.80
2015,06,09,15,13,25.80
2015,06,09,15,14,25.80
2015,06,09,15,15,25.70
2015,06,09,15,16,25.70
2015,06,09,15,17,25.70
2015,06,09,15,18,25.60
2015,06,09,15,19,25.60
2015,06,09,15,20,25.60
2015,06,09,15,21,25.70
2015,06,09,15,22,25.80
2015,06,09,15,23,25.80
2015,06,09,15,24,25.80
2015,06,09,15,25,25.80
2015,06,09,15,26,25.80
2015,06,09,15,27,25.80
2015,06,09,15,28,25.80
2015,06,09,15,29,26.00
2015,06,09,15,30,26.10
2015,06,09,15,31,26.20
2015,06,09,15,32,26.20
2015,06,09,15,33,26.20
2015,06,09,15,34,26.10
2015,06,09,15,35,26.00
2015,06,09,15,36,26.00
2015,06,09,15,37,26.00
2015,06,09,15,38,26.00
2015,06,09,15,39,25.90
2015,06,09,15,40,25.90
2015,06,09,15,41,26.00
2015,06,09,15,42,26.10
2015,06,09,15,43,26.10
2015,06,09,15,44,26.10
2015,06,09,15,45,26.10
2015,06,09,15,46,26.10
2015,06,09,15,47,26.10
2015,06,09,15,48,26.00
2015,06,09,15,49,26.00
2015,06,09,15,50,26.00
2015,06,09,15,51,25.90
2015,06,09,15,52,25.90
2015,06,09,15,53,25.90
2015,06,09,15,54,26.00
2015,06,09,15,55,26.00
2015,06,09,15,56,26.10
2015,06,09,15,57,26.00
2015,06,09,15,58,26.00
2015,06,09,15,59,26.00
2015,06,09,16,00,25.90
2015,06,09,16,01,25.90
2015,06,09,16,02,26.00
2015,06,09,16,03,26.10
2015,06,09,16,04,26.10
2015,06,09,16,05,26.20
2015,06,09,16,06,26.20
2015,06,09,16,07,26.20
2015,06,09,16,08,26.20
2015,06,09,16,09,26.20
2015,06,09,16,10,26.20
2015,06,09,16,11,26.20
2015,06,09,16,12,26.10
2015,06,09,16,13,26.00
2015,06,09,16,14,26.00
2015,06,09,16,15,25.90
2015,06,09,16,16,25.90
2015,06,09,16,17,25.90
2015,06,09,16,18,25.90
2015,06,09,16,19,25.90
2015,06,09,16,20,25.90
2015,06,09,16,21,25.90
2015,06,09,16,22,26.00
2015,06,09,16,23,26.00
2015,06,09,16,24,25.90
2015,06,09,16,25,26.00
2015,06,09,16,26,26.00
2015,06,09,16,27,26.00
2015,06,09,16,28,26.00
2015,06,09,16,29,26.00
2015,06,09,16,30,26.10
2015,06,09,16,31,26.10
2015,06,09,16,32,26.10
2015,06,09,16,33,26.10
2015,06,09,16,34,26.00
2015,06,09,16,35,26.00
2015,06,09,16,36,25.90
2015,06,09,16,37,25.80
2015,06,09,16,38,25.70
2015,06,09,16,39,25.60
2015,06,09,16,40,25.60
2015,06,09,16,41,25.60
2015,06,09,16,42,25.70
2015,06,09,16,43,25.80
2015,06,09,16,44,25.90
2015,06,09,16,45,25.90
2015,06,09,16,46,25.80
2015,06,09,16,47,25.90
2015,06,09,16,48,25.90
2015,06,09,16,49,26.00
2015,06,09,16,50,25.90
2015,06,09,16,51,25.90
2015,06,09,16,52,25.90
2015,06,09,16,53,25.90
2015,06,09,16,54,25.80
2015,06,09,16,55,25.80
2015,06,09,16,56,25.90
2015,06,09,16,57,25.90
2015,06,09,16,58,25.90
2015,06,09,16,59,25.90
2015,06,09,17,00,25.80
2015,06,09,17,01,25.80
2015,06,09,17,02,25.80
2015,06,09,17,03,25.80
2015,06,09,17,04,25.80
2015,06,09,17,05,25.80
2015,06,09,17,06,25.80
2015,06,09,17,07,25.70
2015,06,09,17,08,25.80
2015,06,09,17,09,25.80
2015,06,09,17,10,25.80
2015,06,09,17,11,25.80
2015,06,09,17,12,25.70
2015,06,09,17,13,25.70
2015,06,09,17,14,25.70
2015,06,09,17,15,25.60
2015,06,09,17,16,25.60
2015,06,09,17,17,25.60
2015,06,09,17,18,25.60
2015,06,09,17,19,25.50
2015,06,09,17,20,25.40
2015,06,09,17,21,25.40
2015,06,09,17,22,25.30
2015,06,09,17,23,25.30
2015,06,09,17,24,25.30
2015,06,09,17,25,25.30
2015,06,09,17,26,25.30
2015,06,09,17,27,25.30
2015,06,09,17,28,25.30
2015,06,09,17,29,25.30
2015,06,09,17,30,25.40
2015,06,09,17,31,25.40
2015,06,09,17,32,25.40
2015,06,09,17,33,25.40
2015,06,09,17,34,25.50
2015,06,09,17,35,25.50
2015,06,09,17,36,25.50
2015,06,09,17,37,25.50
2015,06,09,17,38,25.40
2015,06,09,17,39,25.40
2015,06,09,17,40,25.30
2015,06,09,17,41,25.30
2015,06,09,17,42,25.30
2015,06,09,17,43,25.20
2015,06,09,17,44,25.30
2015,06,09,17,45,25.30
2015,06,09,17,46,25.30
2015,06,09,17,47,25.30
2015,06,09,17,48,25.40
2015,06,09,17,49,25.40
2015,06,09,17,50,25.50
2015,06,09,17,51,25.50
2015,06,09,17,52,25.60
2015,06,09,17,53,25.60
2015,06,09,17,54,25.60
2015,06,09,17,55,25.60
2015,06,09,17,56,25.60
2015,06,09,17,57,25.60
2015,06,09,17,58,25.70
2015,06,09,17,59,25.70
2015,06,09,18,00,25.80
2015,06,09,18,01,25.70
2015,06,09,18,02,25.70
2015,06,09,18,03,25.70
2015,06,09,18,04,25.60
2015,06,09,18,05,25.60
2015,06,09,18,06,25.60
2015,06,09,18,07,25.50
2015,06,09,18,08,25.50
2015,06,09,18,09,25.50
2015,06,09,18,10,25.50
2015,06,09,18,11,25.50
2015,06,09,18,12,25.50
2015,06,09,18,13,25.40
2015,06,09,18,14,25.40
2015,06,09,18,15,25.40
2015,06,09,18,16,25.50
2015,06,09,18,17,25.40
2015,06,09,18,18,25.40
2015,06,09,18,19,25.30
2015,06,09,18,20,25.30
2015,06,09,18,21,25.20
2015,06,09,18,22,25.20
2015,06,09,18,23,25.10
2015,06,09,18,24,25.10
2015,06,09,18,25,25.00
2015,06,09,18,26,25.10
2015,06,09,18,27,25.10
2015,06,09,18,28,25.00
2015,06,09,18,29,25.00
2015,06,09,18,30,24.90
2015,06,09,18,31,24.80
2015,06,09,18,32,24.80
2015,06,09,18,33,24.80
2015,06,09,18,34,24.80
2015,06,09,18,35,24.80
2015,06,09,18,36,24.80
2015,06,09,18,37,24.80
2015,06,09,18,38,24.80
2015,06,09,18,39,24.80
2015,06,09,18,40,24.80
2015,06,09,18,41,24.80
2015,06,09,18,42,24.80
2015,06,09,18,43,24.90
2015,06,09,18,44,24.90
2015,06,09,18,45,24.90
2015,06,09,18,46,24.90
2015,06,09,18,47,25.00
2015,06,09,18,48,25.00
2015,06,09,18,49,25.00
2015,06,09,18,50,25.00
2015,06,09,18,51,25.00
2015,06,09,18,52,25.00
2015,06,09,18,53,25.00
2015,06,09,18,54,25.00
2015,06,09,18,55,24.90
2015,06,09,18,56,24.80
2015,06,09,18,57,24.70
2015,06,09,18,58,24.60
2015,06,09,18,59,24.50
2015,06,09,19,00,24.40
2015,06,09,19,01,24.20
2015,06,09,19,02,24.10
2015,06,09,19,03,24.10
2015,06,09,19,04,24.00
2015,06,09,19,05,23.90
2015,06,09,19,06,23.80
2015,06,09,19,07,23.80
2015,06,09,19,08,23.70
2015,06,09,19,09,23.60
2015,06,09,19,10,23.60
2015,06,09,19,11,23.60
2015,06,09,19,12,23.60
2015,06,09,19,13,23.60
2015,06,09,19,14,23.60
2015,06,09,19,15,23.60
2015,06,09,19,16,23.50
2015,06,09,19,17,23.40
2015,06,09,19,18,23.40
2015,06,09,19,19,23.30
2015,06,09,19,20,23.30
2015,06,09,19,21,23.20
2015,06,09,19,22,23.20
2015,06,09,19,23,23.10
2015,06,09,19,24,23.00
2015,06,09,19,25,23.00
2015,06,09,19,26,22.90
2015,06,09,19,27,22.90
2015,06,09,19,28,22.90
2015,06,09,19,29,22.90
2015,06,09,19,30,22.90
2015,06,09,19,31,22.90
2015,06,09,19,32,22.90
2015,06,09,19,33,22.80
2015,06,09,19,34,22.80
2015,06,09,19,35,22.80
2015,06,09,19,36,22.80
2015,06,09,19,37,22.80
2015,06,09,19,38,22.70
2015,06,09,19,39,22.70
2015,06,09,19,40,22.70
2015,06,09,19,41,22.70
2015,06,09,19,42,22.60
2015,06,09,19,43,22.60
2015,06,09,19,44,22.60
2015,06,09,19,45,22.60
2015,06,09,19,46,22.60
2015,06,09,19,47,22.60
2015,06,09,19,48,22.60
2015,06,09,19,49,22.60
2015,06,09,19,50,22.50
2015,06,09,19,51,22.50
2015,06,09,19,52,22.50
2015,06,09,19,53,22.50
2015,06,09,19,54,22.40
2015,06,09,19,55,22.40
2015,06,09,19,56,22.40
2015,06,09,19,57,22.30
2015,06,09,19,58,22.30
2015,06,09,19,59,22.20
2015,06,09,20,00,22.20
2015,06,09,20,01,22.10
2015,06,09,20,02,22.10
2015,06,09,20,03,22.10
2015,06,09,20,04,22.00
2015,06,09,20,05,22.00
2015,06,09,20,06,21.90
2015,06,09,20,07,21.90
2015,06,09,20,08,21.90
2015,06,09,20,09,21.80
2015,06,09,20,10,21.80
2015,06,09,20,11,21.70
2015,06,09,20,12,21.70
2015,06,09,20,13,21.70
2015,06,09,20,14,21.60
2015,06,09,20,15,21.60
2015,06,09,20,16,21.60
2015,06,09,20,17,21.60
2015,06,09,20,18,21.50
2015,06,09,20,19,21.50
2015,06,09,20,20,21.40
2015,06,09,20,21,21.40
2015,06,09,20,22,21.40
2015,06,09,20,23,21.30
2015,06,09,20,24,21.30
2015,06,09,20,25,21.30
2015,06,09,20,26,21.20
2015,06,09,20,27,21.20
2015,06,09,20,28,21.10
2015,06,09,20,29,21.10
2015,06,09,20,30,21.00
2015,06,09,20,31,21.00
2015,06,09,20,32,20.90
2015,06,09,20,33,20.80
2015,06,09,20,34,20.70
2015,06,09,20,35,20.70
2015,06,09,20,36,20.70
2015,06,09,20,37,20.70
2015,06,09,20,38,20.70
2015,06,09,20,39,20.70
2015,06,09,20,40,20.70
2015,06,09,20,41,20.70
2015,06,09,20,42,20.70
2015,06,09,20,43,20.70
2015,06,09,20,44,20.70
2015,06,09,20,45,20.70
